DL1BWU Weather Reports


Display with metric or nautical units.
time (UTC)temp
F
wind
direction
speed
MPH
gust
MPH
rain 1hr
in
rain 24hr
in
rain mn
in
humidity
%
barometer
mb
20260504205510 60 45 0.0 0.0 0.00 0.00 0.00 64 1012.3
20260504204510 61 45 0.0 0.0 0.00 0.00 0.00 64 1012.3
20260504203510 61 45 0.0 0.0 0.00 0.00 0.00 64 1012.1
20260504202510 61 67 0.0 0.0 0.00 0.00 0.00 64 1012.2
20260504201510 61 67 0.0 0.0 0.00 0.00 0.00 64 1012.1
20260504200510 61 67 0.0 0.0 0.00 0.00 0.00 63 1012.1
20260504195510 62 67 0.0 0.0 0.00 0.00 0.00 63 1012.1
20260504194510 62 67 0.0 0.0 0.00 0.00 0.00 63 1012.1
20260504193510 62 67 0.0 0.0 0.00 0.00 0.00 62 1012.0
20260504192510 63 67 0.0 0.0 0.00 0.00 0.00 62 1012.0
20260504191510 63 67 0.0 0.0 0.00 0.00 0.00 61 1011.9
20260504190510 64 67 0.0 0.0 0.00 0.00 0.00 60 1011.9
20260504185510 64 67 0.0 0.0 0.00 0.00 0.00 59 1011.8
20260504184510 65 67 0.0 0.0 0.00 0.00 0.00 59 1011.7
20260504183510 66 67 0.0 0.0 0.00 0.00 0.00 57 1011.7
20260504182510 66 67 0.0 0.0 0.00 0.00 0.00 57 1011.7
20260504181510 67 67 0.0 0.0 0.00 0.00 0.00 56 1011.6
20260504180510 67 67 0.0 0.0 0.00 0.00 0.00 56 1011.6
20260504175510 68 67 0.0 0.0 0.00 0.00 0.00 55 1011.5
20260504174510 68 67 0.0 0.0 0.00 0.00 0.00 55 1011.4
20260504173510 68 67 0.0 0.0 0.00 0.00 0.00 55 1011.3
20260504172510 69 67 0.0 0.0 0.00 0.00 0.00 55 1011.3
20260504171511 69 67 0.0 0.0 0.00 0.00 0.00 55 1011.4
20260504170510 69 67 0.0 0.0 0.00 0.00 0.00 54 1011.4
20260504150511 72 0 0.0 0.0 0.00 0.00 0.00 49 1011.3
20260504140511 72 45 0.0 0.0 0.00 0.00 0.00 51 1012.1
20260504130512 71 45 0.0 0.0 0.00 0.00 0.00 53 1012.3
20260504110511 70 337 0.0 0.0 0.00 0.00 0.00 55 1012.4
20260504100511 70 270 0.0 0.0 0.00 0.00 0.00 54 1012.7
20260504081511 68 247 0.0 0.0 0.00 0.00 0.00 56 1012.4
20260504080511 68 157 0.0 0.0 0.00 0.00 0.00 57 1012.3
20260504050512 61 67 0.0 0.0 0.00 0.00 0.00 61 1011.5
20260504045512 61 67 0.0 0.0 0.00 0.00 0.00 60 1011.4
20260504044512 61 67 0.0 0.0 0.00 0.00 0.00 60 1011.3
20260504043512 61 67 0.0 0.0 0.00 0.00 0.00 59 1011.1
20260504042512 61 67 0.0 0.0 0.00 0.00 0.00 59 1010.8
20260504041512 61 67 0.0 0.0 0.00 0.00 0.00 58 1011.0
20260504040512 61 67 0.0 0.0 0.00 0.00 0.00 58 1011.0
20260504035512 61 337 0.0 0.0 0.00 0.00 0.00 57 1010.9
20260504034512 61 0 0.0 0.0 0.00 0.00 0.00 57 1011.1
20260504033512 61 0 0.0 0.0 0.00 0.00 0.00 57 1011.2
20260504032512 61 0 0.0 0.0 0.00 0.00 0.00 56 1011.1
20260504031512 61 0 0.0 0.0 0.00 0.00 0.00 56 1011.2
20260504030512 61 0 0.0 0.0 0.00 0.00 0.00 55 1011.0
20260504025512 61 0 0.0 0.0 0.00 0.00 0.00 55 1011.2
20260504024512 61 0 0.0 0.0 0.00 0.00 0.00 55 1011.3
20260504023512 62 0 0.0 0.0 0.00 0.00 0.00 54 1011.1
20260504022512 62 0 0.0 0.0 0.00 0.00 0.00 54 1011.0
20260504021512 62 0 0.0 0.0 0.00 0.00 0.00 54 1010.9
20260504020512 62 0 0.0 0.0 0.00 0.00 0.00 53 1010.9
20260504015512 62 0 0.0 0.0 0.00 0.00 0.00 53 1010.9
20260504014512 62 0 0.0 0.0 0.00 0.00 0.00 53 1010.8
20260504013512 62 0 0.0 0.0 0.00 0.00 0.00 52 1010.7
20260504012512 63 0 0.0 0.0 0.00 0.00 0.00 52 1010.7
20260504011512 63 0 0.0 0.0 0.00 0.00 0.00 51 1010.7
20260504010512 64 0 0.0 0.0 0.00 0.00 0.00 51 1010.5
20260504005512 64 0 0.0 0.0 0.00 0.00 0.00 50 1010.5
20260504004512 64 0 0.0 0.0 0.00 0.00 0.00 50 1010.4
20260504003512 64 0 0.0 0.0 0.00 0.00 0.00 49 1010.4
20260504002512 65 0 0.0 0.0 0.00 0.00 0.00 49 1010.5
20260504001512 65 292 0.0 0.0 0.00 0.00 0.00 49 1010.5
20260504000512 65 292 0.0 0.0 0.00 0.00 0.00 49 1010.5
20260503235512 65 292 0.0 0.0 0.00 0.00 0.00 49 1010.3
20260503234513 65 0 0.0 0.0 0.00 0.00 0.00 49 1010.3
20260503233512 65 315 0.0 0.0 0.00 0.00 0.00 49 1010.3
20260503232512 65 45 0.0 0.0 0.00 0.00 0.00 50 1010.5
20260503231513 64 45 0.0 0.0 0.00 0.00 0.00 51 1010.4
20260503230512 63 315 0.0 0.0 0.00 0.00 0.00 56 1010.7
20260503225513 63 45 0.0 0.0 0.00 0.00 0.00 56 1010.5
20260503224513 63 45 0.0 0.0 0.00 0.00 0.00 56 1010.4
20260503223513 63 45 0.0 0.0 0.00 0.00 0.00 56 1010.3
20260503222513 63 45 0.0 0.0 0.00 0.00 0.00 56 1010.4
20260503221513 63 45 0.0 0.0 0.00 0.00 0.00 56 1010.5
20260503220551 63 45 0.0 0.0 0.00 0.00 0.00 56 1010.4
20260503220513 63 45 0.0 0.0 0.00 0.00 0.00 56 1010.4
20260503215513 63 45 0.0 0.0 0.00 0.00 0.00 55 1010.3
20260503214513 63 45 0.0 0.0 0.00 0.00 0.00 55 1010.2
20260503213513 64 45 0.0 0.0 0.00 0.00 0.00 55 1010.2
20260503212513 64 45 0.0 0.0 0.00 0.00 0.00 55 1010.3
20260503211513 64 45 0.0 0.0 0.00 0.00 0.00 54 1010.3
20260503210513 64 45 0.0 0.0 0.00 0.00 0.00 53 1010.3